This is the latest recevied weather packets stored in our database for station/object KB2SKP. If no packets are shown the sender has not sent any weather packets the latest 10 day(s).
| Time | Temp. | Humidity | Pressure | Rain* | Wind** | Luminosity | Snow |
|---|---|---|---|---|---|---|---|
| 1777641397 | 11.67° C | 57% | 1012.3 hPa | 0 mm | - | 71 W/m² | - |
| 1777641092 | 11.67° C | 57% | 1012.3 hPa | 0 mm | - | 10 W/m² | - |
| 1777640789 | 11.67° C | 63% | 1012.2 hPa | 0 mm | - | 26 W/m² | - |
| 1777640486 | 11.11° C | 66% | 1012.3 hPa | 0 mm | - | 27 W/m² | - |
| 1777640183 | 11.11° C | 69% | 1012.4 hPa | 0 mm | - | 54 W/m² | - |
| 1777639879 | 10.56° C | 70% | 1012.3 hPa | 0 mm | - | 29 W/m² | - |
| 1777639577 | 10.56° C | 69% | 1012.1 hPa | 0 mm | - | 24 W/m² | - |
| 1777639273 | 10.56° C | 70% | 1012.3 hPa | 0 mm | - | 41 W/m² | - |
| 1777638969 | 10° C | 71% | 1012.5 hPa | 0 mm | - | 22 W/m² | - |
| 1777638665 | 10° C | 74% | 1012.5 hPa | 0 mm | - | 21 W/m² | - |
| 1777638362 | 9.44° C | 78% | 1012.5 hPa | 0 mm | - | 21 W/m² | - |
| 1777638058 | 9.44° C | 79% | 1012.2 hPa | 0 mm | - | 20 W/m² | - |
| 1777637755 | 8.89° C | 79% | 1012.4 hPa | 0 mm | - | 20 W/m² | - |
| 1777637451 | 8.33° C | 84% | 1012.4 hPa | 0 mm | - | 19 W/m² | - |
| 1777637149 | 8.33° C | 85% | 1012.3 hPa | 0 mm | - | 19 W/m² | - |
| 1777636845 | 7.78° C | 86% | 1012.3 hPa | 0 mm | - | 18 W/m² | - |
| 1777636541 | 7.78° C | 89% | 1012.6 hPa | 0 mm | - | 17 W/m² | - |
| 1777636237 | 6.67° C | 90% | 1012.4 hPa | 0 mm | - | 18 W/m² | - |
| 1777635937 | 6.67° C | 91% | 1012.3 hPa | 0 mm | - | 16 W/m² | - |
| 1777635633 | 6.11° C | 92% | 1012.1 hPa | 0 mm | - | 15 W/m² | - |
| 1777635331 | 5.56° C | 92% | 1012.3 hPa | 0 mm | - | 17 W/m² | - |
| 1777635027 | 5.56° C | 92% | 1012.1 hPa | 0 mm | - | 15 W/m² | - |
| 1777634723 | 5.56° C | 92% | 1012.3 hPa | 0 mm | - | 12 W/m² | - |
| 1777634421 | 5° C | 92% | 1012 hPa | 0 mm | - | 12 W/m² | - |
| 1777634118 | 5° C | 92% | 1012 hPa | 0 mm | - | 11 W/m² | - |
* Rain latest hour (hover to see other rain measurements)
** Current wind speed in m/s (hover to see current wind gust speed)